Total_Precipitation_Accumulation
0.00 0.01 0.01 0.06 0.15 0.06 0.00 0.00 0.00 0.00 0.00 0.00 0.00 0.00 0.00 0.00 0.02 0.16 0.04 0.00 0.00 0.00 0.01 0.02 0.03 0.03 0.03 0.02 0.03 0.04 0.07 0.08 0.06 0.05 0.05 0.04 0.03 0.03 0.03 0.03 0.02 0.02 0.04 0.06 0.09 0.14 0.18 0.22 0.26
0.00 0.00 0.02 0.07 0.10 0.01 0.00 0.00 0.00 0.00 0.00 0.00 0.00 0.00 0.00 0.00 0.00 0.01 0.00 0.00 0.00 0.00 0.00 0.01 0.02 0.03 0.05 0.04 0.05 0.05 0.09 0.11 0.09 0.06 0.06 0.04 0.03 0.04 0.05 0.03 0.03 0.02 0.03 0.04 0.06 0.08 0.15 0.22 0.27
0.00 0.00 0.01 0.06 0.03 0.00 0.00 0.00 0.00 0.00 0.00 0.00 0.00 0.00 0.00 0.00 0.00 0.00 0.00 0.01 0.00 0.00 0.00 0.02 0.04 0.06 0.09 0.08 0.09 0.10 0.11 0.12 0.09 0.07 0.06 0.04 0.04 0.03 0.03 0.03 0.04 0.03 0.03 0.04 0.05 0.07 0.12 0.19 0.20
0.00 0.00 0.02 0.02 0.00 0.00 0.00 0.00 0.00 0.00 0.00 0.00 0.00 0.00 0.00 0.00 0.00 0.00 0.00 0.00 0.00 0.00 0.01 0.05 0.06 0.09 0.14 0.15 0.16 0.20 0.18 0.16 0.11 0.08 0.06 0.06 0.05 0.02 0.02 0.04 0.08 0.05 0.02 0.02 0.05 0.08 0.13 0.17 0.20
0.00 0.01 0.02 0.01 0.00 0.00 0.00 0.00 0.00 0.00 0.00 0.00 0.00 0.00 0.00 0.00 0.00 0.00 0.01 0.01 0.00 0.01 0.03 0.05 0.07 0.11 0.19 0.19 0.16 0.26 0.28 0.27 0.17 0.10 0.07 0.06 0.04 0.01 0.02 0.06 0.08 0.07 0.04 0.02 0.02 0.05 0.09 0.12 0.16
0.00 0.02 0.05 0.02 0.00 0.00 0.00 0.00 0.00 0.00 0.00 0.00 0.00 0.00 0.00 0.00 0.00 0.00 0.01 0.01 0.00 0.02 0.02 0.04 0.07 0.12 0.20 0.22 0.25 0.37 0.39 0.33 0.20 0.09 0.10 0.08 0.06 0.02 0.02 0.04 0.05 0.08 0.08 0.03 0.02 0.02 0.03 0.05 0.08
0.00 0.04 0.08 0.02 0.00 0.00 0.00 0.00 0.00 0.00 0.00 0.00 0.00 0.00 0.00 0.00 0.00 0.00 0.00 0.00 0.00 0.01 0.03 0.03 0.05 0.08 0.15 0.25 0.30 0.40 0.46 0.40 0.24 0.10 0.11 0.10 0.07 0.03 0.02 0.02 0.02 0.03 0.03 0.02 0.02 0.01 0.01 0.01 0.02
0.00 0.03 0.06 0.03 0.02 0.01 0.01 0.00 0.01 0.00 0.00 0.00 0.00 0.00 0.00 0.00 0.00 0.01 0.00 0.01 0.00 0.00 0.01 0.02 0.03 0.06 0.13 0.21 0.32 0.40 0.50 0.60 0.39 0.15 0.09 0.08 0.07 0.04 0.02 0.02 0.01 0.01 0.01 0.01 0.01 0.01 0.00 0.00 0.00
0.00 0.03 0.07 0.07 0.03 0.02 0.02 0.01 0.03 0.03 0.02 0.01 0.00 0.00 0.00 0.01 0.02 0.04 0.04 0.04 0.03 0.01 0.01 0.01 0.01 0.04 0.09 0.15 0.20 0.36 0.48 0.61 0.44 0.19 0.08 0.06 0.07 0.08 0.03 0.03 0.01 0.02 0.02 0.00 0.00 0.00 0.00 0.00 0.01
0.00 0.02 0.05 0.05 0.03 0.04 0.03 0.03 0.05 0.05 0.04 0.03 0.02 0.02 0.02 0.03 0.07 0.11 0.13 0.11 0.09 0.06 0.02 0.01 0.01 0.02 0.05 0.09 0.15 0.28 0.36 0.45 0.37 0.24 0.12 0.12 0.23 0.16 0.02 0.02 0.01 0.02 0.01 0.00 0.00 0.00 0.00 0.00 0.00
0.01 0.03 0.05 0.05 0.04 0.03 0.03 0.04 0.04 0.05 0.05 0.05 0.04 0.05 0.06 0.09 0.12 0.16 0.20 0.20 0.18 0.15 0.10 0.05 0.03 0.02 0.05 0.13 0.21 0.28 0.37 0.45 0.52 0.50 0.22 0.17 0.21 0.12 0.01 0.01 0.01 0.01 0.01 0.00 0.00 0.00 0.00 0.00 0.00
0.02 0.03 0.03 0.04 0.04 0.04 0.04 0.05 0.06 0.06 0.07 0.07 0.07 0.10 0.16 0.21 0.21 0.22 0.27 0.32 0.34 0.31 0.27 0.20 0.10 0.07 0.07 0.12 0.21 0.34 0.38 0.47 0.54 0.51 0.25 0.18 0.18 0.10 0.04 0.01 0.01 0.00 0.00 0.00 0.00 0.00 0.00 0.00 0.00
0.04 0.06 0.05 0.05 0.05 0.06 0.08 0.08 0.07 0.08 0.10 0.10 0.13 0.19 0.26 0.29 0.28 0.25 0.26 0.31 0.36 0.44 0.50 0.47 0.31 0.23 0.22 0.20 0.18 0.19 0.18 0.29 0.52 0.53 0.25 0.17 0.15 0.13 0.09 0.02 0.01 0.00 0.00 0.00 0.00 0.00 0.00 0.00 0.00
0.05 0.07 0.07 0.04 0.06 0.07 0.10 0.10 0.08 0.10 0.13 0.12 0.14 0.20 0.27 0.34 0.37 0.35 0.32 0.30 0.30 0.33 0.43 0.51 0.48 0.47 0.44 0.34 0.24 0.19 0.16 0.24 0.29 0.22 0.13 0.14 0.13 0.13 0.14 0.06 0.02 0.01 0.00 0.01 0.00 0.00 0.00 0.00 0.00
0.01 0.02 0.03 0.02 0.03 0.06 0.09 0.09 0.06 0.08 0.12 0.11 0.10 0.13 0.18 0.24 0.31 0.35 0.32 0.25 0.24 0.25 0.31 0.40 0.47 0.52 0.54 0.54 0.50 0.37 0.31 0.28 0.23 0.19 0.14 0.14 0.14 0.16 0.17 0.10 0.05 0.01 0.01 0.00 0.00 0.00 0.00 0.00 0.00
0.00 0.00 0.01 0.01 0.04 0.08 0.09 0.07 0.07 0.10 0.09 0.08 0.07 0.08 0.11 0.12 0.15 0.21 0.27 0.27 0.24 0.24 0.24 0.30 0.35 0.42 0.51 0.59 0.64 0.61 0.54 0.43 0.32 0.24 0.17 0.14 0.15 0.18 0.22 0.15 0.09 0.07 0.03 0.02 0.01 0.00 0.00 0.00 0.00
0.00 0.01 0.01 0.02 0.05 0.07 0.07 0.07 0.07 0.07 0.05 0.03 0.03 0.03 0.05 0.07 0.09 0.11 0.15 0.20 0.24 0.24 0.23 0.24 0.28 0.32 0.39 0.49 0.55 0.55 0.52 0.45 0.40 0.35 0.22 0.17 0.17 0.21 0.28 0.28 0.23 0.20 0.15 0.09 0.05 0.01 0.01 0.01 0.01
0.01 0.01 0.02 0.03 0.04 0.05 0.06 0.07 0.06 0.04 0.02 0.01 0.01 0.02 0.02 0.01 0.03 0.06 0.09 0.15 0.23 0.24 0.24 0.24 0.26 0.27 0.30 0.35 0.42 0.45 0.38 0.35 0.39 0.34 0.30 0.32 0.37 0.39 0.44 0.51 0.49 0.41 0.31 0.25 0.18 0.12 0.07 0.03 0.02
0.02 0.00 0.00 0.01 0.01 0.01 0.01 0.02 0.02 0.01 0.01 0.00 0.00 0.01 0.01 0.01 0.01 0.01 0.02 0.06 0.13 0.18 0.17 0.18 0.24 0.26 0.24 0.23 0.27 0.32 0.30 0.34 0.41 0.47 0.49 0.52 0.54 0.56 0.65 0.76 0.82 0.78 0.60 0.52 0.46 0.37 0.31 0.17 0.04
0.01 0.01 0.00 0.01 0.01 0.01 0.01 0.01 0.01 0.01 0.01 0.00 0.01 0.01 0.01 0.01 0.01 0.01 0.01 0.01 0.02 0.05 0.09 0.13 0.15 0.17 0.16 0.17 0.22 0.30 0.36 0.39 0.49 0.62 0.70 0.70 0.67 0.67 0.68 0.79 0.84 0.81 0.75 0.70 0.60 0.54 0.55 0.39 0.15
0.00 0.00 0.00 0.00 0.00 0.01 0.01 0.01 0.02 0.02 0.02 0.01 0.02 0.02 0.02 0.02 0.02 0.02 0.01 0.01 0.01 0.02 0.03 0.06 0.10 0.13 0.12 0.20 0.38 0.64 0.88 0.94 0.93 0.93 1.05 1.13 1.05 0.93 0.89 0.86 0.91 0.89 0.90 0.83 0.73 0.65 0.65 0.56 0.36
0.00 0.00 0.00 0.00 0.00 0.00 0.00 0.01 0.02 0.04 0.05 0.06 0.06 0.07 0.07 0.08 0.06 0.04 0.03 0.03 0.02 0.02 0.02 0.02 0.06 0.10 0.13 0.30 0.61 0.99 1.30 1.39 1.36 1.47 1.50 1.53 1.44 1.27 1.20 1.15 1.14 1.01 0.90 0.81 0.73 0.65 0.64 0.69 0.61
0.00 0.00 0.00 0.00 0.01 0.00 0.00 0.01 0.03 0.07 0.12 0.16 0.16 0.17 0.18 0.15 0.11 0.08 0.06 0.05 0.07 0.08 0.08 0.08 0.14 0.26 0.42 0.55 0.70 0.98 1.16 1.26 1.38 1.54 1.69 1.79 1.90 1.85 1.74 1.60 1.34 1.11 0.96 0.86 0.83 0.77 0.70 0.67 0.64
0.00 0.00 0.00 0.00 0.00 0.00 0.00 0.02 0.08 0.16 0.20 0.24 0.24 0.25 0.23 0.19 0.13 0.10 0.09 0.10 0.15 0.22 0.23 0.24 0.32 0.40 0.47 0.56 0.68 0.79 0.87 1.04 1.21 1.36 1.52 1.63 1.75 1.75 1.68 1.51 1.23 0.99 0.83 0.78 0.83 0.81 0.76 0.70 0.64
0.00 0.00 0.00 0.01 0.01 0.02 0.02 0.06 0.15 0.17 0.17 0.20 0.21 0.18 0.15 0.15 0.15 0.14 0.13 0.18 0.23 0.30 0.33 0.39 0.45 0.52 0.52 0.57 0.64 0.72 0.78 0.90 1.04 1.10 1.11 1.10 1.08 1.10 1.11 1.05 0.95 0.84 0.74 0.73 0.80 0.84 0.81 0.75 0.67
0.00 0.00 0.01 0.02 0.02 0.03 0.04 0.13 0.24 0.16 0.10 0.08 0.10 0.11 0.12 0.17 0.20 0.20 0.19 0.26 0.31 0.38 0.46 0.54 0.59 0.58 0.58 0.64 0.70 0.71 0.78 0.88 0.91 0.83 0.75 0.74 0.74 0.79 0.80 0.85 0.81 0.76 0.70 0.66 0.67 0.70 0.71 0.68 0.62
0.00 0.00 0.01 0.03 0.02 0.02 0.05 0.15 0.15 0.07 0.05 0.05 0.09 0.15 0.20 0.26 0.30 0.31 0.32 0.37 0.40 0.47 0.56 0.63 0.65 0.65 0.69 0.72 0.78 0.90 0.89 0.85 0.77 0.62 0.53 0.53 0.50 0.48 0.58 0.71 0.77 0.74 0.70 0.67 0.66 0.70 0.67 0.63 0.59
0.00 0.01 0.02 0.03 0.04 0.06 0.11 0.15 0.13 0.08 0.10 0.12 0.17 0.24 0.35 0.44 0.45 0.47 0.52 0.55 0.55 0.55 0.63 0.69 0.74 0.76 0.75 0.78 0.89 1.07 0.98 0.73 0.56 0.46 0.46 0.46 0.45 0.46 0.51 0.52 0.53 0.53 0.57 0.59 0.62 0.69 0.71 0.64 0.59
0.05 0.03 0.02 0.02 0.03 0.13 0.29 0.42 0.46 0.45 0.38 0.42 0.42 0.49 0.63 0.68 0.69 0.69 0.70 0.72 0.66 0.66 0.72 0.75 0.80 0.90 0.91 0.86 0.92 0.97 0.76 0.53 0.42 0.40 0.35 0.30 0.28 0.29 0.34 0.32 0.31 0.38 0.44 0.41 0.45 0.50 0.57 0.61 0.60
0.07 0.06 0.03 0.05 0.07 0.16 0.33 0.54 0.64 0.70 0.68 0.79 0.85 0.96 0.89 0.83 0.83 0.76 0.70 0.68 0.57 0.57 0.66 0.74 0.83 0.88 0.81 0.75 0.72 0.58 0.41 0.32 0.30 0.26 0.21 0.15 0.14 0.15 0.21 0.22 0.21 0.27 0.38 0.39 0.44 0.46 0.44 0.45 0.47